Location: Montbazon
(47.2835°N, 0.6999°E)
Time: 07:48:58
(UTC+00:00)

Cosmos 2346 Rocket - Pass Details

Date: 08 November 2025
Orbit: 935 x 979 km, 82.9° (Epoch: 12 December)

Event Time Altitude Azimuth Distance (km) Brightness Sun altitude
Rises 05:52:54 0° 192° (SSW) 3,639 7.5 -10.2°
Reaches altitude 10° 05:55:24 10° 195° (SSW) 2,691 6.8 -9.8°
Maximum altitude 06:01:33 74° 280° (W) 995 4.4 -8.8°
Drops below altitude 10° 06:07:41 10° 6° (N) 2,679 6.7 -7.8°
Sets 06:10:11 0° 8° (N) 3,622 7.4 -7.3°
